Regional Weather Roundup
Issued by NWS Huntsville, AL

Home | Current Version | Previous Version | Text Only | Print | Product List | Glossary On
Versions: 1 2 3 4 5 6 7 8 9 10 11 12 13 14 15 16 17 18 19 20 21 22 23 24 25 26 27
000
ASUS44 KHUN 260010
RWRHUN

WEATHER ROUNDUP FOR THE TENNESSEE VALLEY
NATIONAL WEATHER SERVICE HUNTSVILLE AL
700 PM CDT SUN SEP 25 2016

ALZ001>004-260100-
NORTHWEST ALABAMA

CITY           SKY/WX    TMP DP  RH WIND       PRES   REMARKS
SHOALS AIRPORT CLEAR     88  59  37 VRB3      29.99R
6HR MIN TEMP:  88; 6HR MAX TEMP:  99;

$$

ALZ005>007-016-260100-
NORTH CENTRAL ALABAMA

CITY           SKY/WX    TMP DP  RH WIND       PRES   REMARKS
DECATUR AP     PTCLDY    83  58  42 N5        29.98S
6HR MIN TEMP:  83; 6HR MAX TEMP:  99;

HUNTSVILLE AP  MOCLDY    91  56  30 NE5       29.98R
6HR MIN TEMP:  91; 6HR MAX TEMP:  99;

MERIDIANVILLE  CLEAR     86  54  32 CALM      30.00R
REDSTONE ARSN  MOCLDY    88  61  40 E6        29.98R
VINEMONT AP    FAIR      82  62  50 CALM      30.02S
$$

ALZ008>010-260100-
NORTHEAST ALABAMA

CITY           SKY/WX    TMP DP  RH WIND       PRES   REMARKS
ALBERTVILLE    CLEAR     86  64  48 SE3       30.00S
FORT PAYNE     CLEAR     81  55  41 CALM      30.00R
SCOTTSBORO AP  CLEAR     84  63  48 CALM      29.99S
SCOTTSBORO HCN   N/A     84 N/A N/A MISG        N/A
VALLEY HEAD      N/A     81 N/A N/A MISG        N/A
$$

TNZ076-096-097-260100-
SOUTHEASTERN MIDDLE TENNESSEE

CITY           SKY/WX    TMP DP  RH WIND       PRES   REMARKS
TULLAHOMA        N/A     81  64  57 CALM      30.04R
WINCHESTER     CLEAR     79  66  65 CALM      30.02S
$$

...SURROUNDING SITES...

CITY           SKY/WX    TMP DP  RH WIND       PRES   REMARKS
ATLANTA        PTCLDY    85  63  47 S5        30.04R
ANNISTON       CLEAR     88  57  34 E3        30.00R
BIRMINGHAM     PTCLDY    91  55  29 E3        29.99S
CHATTANOOGA    PTCLDY    90  58  33 NE3       30.00R
CORINTH        FAIR      86  61  42 NE5       29.97R
DALTON         CLEAR     86  61  42 SE7       30.01R
GADSDEN        CLOUDY    83  69  62 CALM      29.98S
GOLDEN TRNGL   CLEAR     90  61  37 SE9       29.95S
HALEYVILLE     FAIR      80  64  58 CALM      30.01S
JACKSON TN       N/A    N/A N/A N/A MISG      29.99S
MEMPHIS        PTCLDY    89  65  44 N6        29.97R HX  91
NASHVILLE      PTCLDY    85  62  46 N3        30.01S
OXFORD MS      FAIR      82  64  54 CALM      29.98S
ROME           CLEAR     85  58  39 SE3       29.99R
SAVANNAH       CLEAR     84  64  51 NE3       29.98S
TUPELO         CLEAR     91  57  31 NE6       29.95S
TUSCALOOSA     CLEAR     81  67  62 CALM      29.95S
$$

...GULF COAST WEATHER...

CITY           SKY/WX    TMP DP  RH WIND       PRES   REMARKS
GULFPORT       CLOUDY    85  71  63 SW5       29.95S HX  90
PASCAGOULA     CLOUDY    78  75  90 CALM      29.97R
MOBILE         MOCLDY    74  72  93 CALM      29.98R
GULF SHORES    CLOUDY    76  73  91 CALM      29.96S
PENSACOLA      CLOUDY    77  71  82 NW6       29.96R
DESTIN         PTCLDY    84  74  71 NE6       29.98R HX  91
PANAMA CITY    PTCLDY    80  75  86 N3        29.99R
APPALACHICOLA  CLEAR     80  73  79 NE6       29.97S
$$





USA.gov is the U.S. government's official web portal to all federal, state and local government web resources and services.